Pineville, WV

5:04 AM EDT on July 26, 2017 (GMT -0400)
Pineville

Weather History for KI16 - November, 2012

Change the Weather History Date:

Thursday, November 15, 2012

  Actual Average (KBKW) Record (KBKW)
Temperature  
Mean Temperature 42 °F -  
Max Temperature 55 °F 50 °F 78 °F (1918)
Min Temperature 28 °F 33 °F 9 °F (1969)
Degree Days  
Heating Degree Days 24    
Moisture  
Dew Point 32 °F    
Average Humidity 79    
Maximum Humidity 100    
Minimum Humidity 40    
Precipitation  
Precipitation 0.00 in - - ()
Sea Level Pressure  
Sea Level Pressure 30.32 in    
Wind  
Wind Speed - (North)    
Max Wind Speed -    
Max Gust Speed -    
Visibility 10 miles    
Events      
Averages and records for this station are not official NWS values.
T = Trace of Precipitation, MM = Missing Value Source: NWS Daily Summary

Daily Weather History Graph

Daily Weather History Graph

Search for Another Location

Airport or City:

Trip Planner

Search our weather history database for the weather conditions in past years. The results will help you decide how hot, cold, wet, or windy it might be!

Date:

Astronomy

Nov. 15, 2012 Rise Set
Actual Time 7:06 AM EST 5:14 PM EST
Civil Twilight 6:38 AM EST 5:42 PM EST
Nautical Twilight 6:06 AM EST 6:14 PM EST
Astronomical Twilight 5:35 AM EST 6:45 PM EST
Moon 8:59 AM EST (11/15) 7:06 PM EST (11/15)
Length of Visible Light 11h 04m
Length of Day
10h 08m
Waxing Crescent, 5% of the Moon is Illuminated
Nov 15
Waxing Crescent
Nov 20
First Quarter
Nov 28
Full
Dec 6
Last Quarter
Dec 13
New

Hourly Weather History & Observations

Time (EST) Temp. Dew Point Humidity Pressure Visibility Wind Dir Wind Speed Gust Speed Precip Events Conditions
12:15 AM 34.2 °F 32.0 °F 92% 30.33 in 10.0 mi North - - N/A   Clear
12:35 AM 33.8 °F 32.2 °F 94% 30.33 in 10.0 mi North - - N/A   Clear
12:55 AM 33.4 °F 32.0 °F 94% 30.32 in 10.0 mi North - - N/A   Clear
1:15 AM 33.4 °F 32.0 °F 94% 30.32 in 10.0 mi North - - N/A   Clear
1:35 AM 32.4 °F 31.6 °F 97% 30.32 in 10.0 mi North - - N/A   Clear
1:55 AM 32.4 °F 31.3 °F 96% 30.32 in 10.0 mi North - - N/A   Clear
2:15 AM 31.8 °F 30.9 °F 96% 30.32 in 10.0 mi North - - N/A   Clear
2:35 AM 32.0 °F 31.1 °F 96% 30.33 in 10.0 mi North - - N/A   Clear
2:55 AM 32.0 °F 31.5 °F 98% 30.33 in 10.0 mi North - - N/A   Clear
3:15 AM 32.0 °F 31.5 °F 98% 30.33 in 10.0 mi North - - N/A   Clear
3:35 AM 32.0 °F 31.5 °F 98% 30.32 in 10.0 mi North - - N/A   Clear
3:55 AM 32.0 °F 31.5 °F 98% 30.31 in 10.0 mi North - - N/A   Clear
4:15 AM 32.0 °F 31.3 °F 97% 30.31 in 10.0 mi North - - N/A   Clear
4:35 AM 32.0 °F 30.6 °F 94% 30.32 in 10.0 mi North - - N/A   Clear
4:55 AM 30.9 °F 30.0 °F 96% 30.34 in 10.0 mi North - - N/A   Clear
5:15 AM 30.2 °F 29.8 °F 99% 30.33 in 10.0 mi North - - N/A   Clear
5:35 AM 30.2 °F 29.8 °F 99% 30.33 in 10.0 mi North - - N/A   Clear
5:55 AM 30.0 °F 29.8 °F 99% 30.34 in 10.0 mi North - - N/A   Clear
6:15 AM 29.7 °F 29.3 °F 99% 30.33 in 10.0 mi North - - N/A   Clear
6:35 AM 29.3 °F 29.1 °F 99% 30.33 in 10.0 mi North - - N/A   Clear
6:55 AM 28.9 °F 28.8 °F 99% 30.33 in 10.0 mi North - - N/A   Clear
7:15 AM 28.9 °F 28.8 °F 99% 30.33 in 10.0 mi North - - N/A   Clear
7:35 AM 28.9 °F 28.6 °F 99% 30.34 in 10.0 mi North - - N/A   Clear
7:55 AM 30.4 °F 30.2 °F 99% 30.34 in 10.0 mi North - - N/A   Clear
8:15 AM 32.0 °F 32.0 °F 100% 30.35 in 10.0 mi North - - N/A   Clear
8:35 AM 34.7 °F 32.9 °F 93% 30.36 in 10.0 mi North - - N/A   Clear
8:55 AM 37.6 °F 33.6 °F 86% 30.36 in 10.0 mi North - - N/A   Clear
9:15 AM 40.8 °F 32.4 °F 72% 30.35 in 10.0 mi North - - N/A   Clear
9:35 AM 43.2 °F 32.2 °F 65% 30.36 in 10.0 mi North - - N/A   Clear
9:55 AM 44.2 °F 32.2 °F 63% 30.36 in 10.0 mi North - - N/A   Clear
10:15 AM 44.4 °F 32.4 °F 63% 30.36 in 10.0 mi North - - N/A   Clear
10:35 AM 45.5 °F 32.4 °F 60% 30.35 in 10.0 mi North - - N/A   Clear
10:55 AM 48.0 °F 32.5 °F 55% 30.35 in 10.0 mi North - - N/A   Clear
11:15 AM 49.5 °F 32.9 °F 53% 30.34 in 10.0 mi North - - N/A   Clear
11:35 AM 50.7 °F 32.7 °F 50% 30.34 in 10.0 mi North - - N/A   Clear
11:55 AM 50.9 °F 32.7 °F 50% 30.32 in 10.0 mi North - - N/A   Clear
12:15 PM 52.0 °F 33.3 °F 49% 30.32 in 10.0 mi North - - N/A   Clear
12:35 PM 53.6 °F 32.9 °F 45% 30.31 in 10.0 mi North - - N/A   Clear
12:55 PM 54.7 °F 32.7 °F 43% 30.31 in 10.0 mi North - - N/A   Clear
1:15 PM 54.9 °F 32.4 °F 42% 30.30 in 10.0 mi North - - N/A   Clear
1:35 PM 54.9 °F 32.0 °F 42% 30.30 in 10.0 mi North - - N/A   Clear
1:55 PM 55.6 °F 31.8 °F 41% 30.29 in 10.0 mi North - - N/A   Clear
2:15 PM 54.9 °F 30.9 °F 40% 30.29 in 10.0 mi North - - N/A   Clear
2:35 PM 54.7 °F 32.4 °F 43% 30.28 in 10.0 mi North - - N/A   Clear
2:55 PM 55.2 °F 32.2 °F 42% 30.28 in 10.0 mi North - - N/A   Clear
3:15 PM 55.4 °F 32.7 °F 42% 30.28 in 10.0 mi North - - N/A   Clear
3:35 PM 53.2 °F 34.0 °F 48% 30.27 in 10.0 mi North - - N/A   Clear
3:55 PM 52.7 °F 33.1 °F 47% 30.27 in 10.0 mi North - - N/A   Clear
4:15 PM 52.5 °F 33.4 °F 48% 30.27 in 10.0 mi North - - N/A   Clear
4:35 PM 50.0 °F 35.6 °F 58% 30.27 in 10.0 mi North - - N/A   Clear
4:55 PM 46.6 °F 35.8 °F 66% 30.28 in 10.0 mi North - - N/A   Clear
5:15 PM 44.6 °F 35.6 °F 71% 30.28 in 10.0 mi North - - N/A   Clear
5:55 PM 41.0 °F 35.1 °F 79% 30.29 in 10.0 mi North - - N/A   Clear
6:15 PM 39.6 °F 34.7 °F 83% 30.30 in 10.0 mi North - - N/A   Clear
6:55 PM 37.4 °F 33.8 °F 87% 30.31 in 10.0 mi North - - N/A   Clear
7:15 PM 36.1 °F 33.1 °F 89% 30.31 in 10.0 mi North - - N/A   Clear
7:35 PM 35.4 °F 32.9 °F 91% 30.31 in 10.0 mi North - - N/A   Clear
7:55 PM 34.9 °F 32.7 °F 92% 30.31 in 10.0 mi North - - N/A   Clear
8:55 PM 33.1 °F 32.0 °F 96% 30.32 in 10.0 mi North - - N/A   Clear
9:15 PM 33.1 °F 32.0 °F 96% 30.32 in 10.0 mi North - - N/A   Clear
9:35 PM 32.4 °F 32.0 °F 99% 30.32 in 10.0 mi North - - N/A   Clear
9:55 PM 32.4 °F 32.0 °F 99% 30.32 in 10.0 mi North - - N/A   Clear
10:15 PM 32.0 °F 31.8 °F 99% 30.33 in 10.0 mi North - - N/A   Clear
10:55 PM 32.0 °F 31.6 °F 99% 30.33 in 10.0 mi North - - N/A   Clear
11:15 PM 31.8 °F 31.5 °F 99% 30.34 in 10.0 mi North - - N/A   Clear
11:35 PM 31.3 °F 30.9 °F 99% 30.34 in 10.0 mi North - - N/A   Clear
11:55 PM 31.1 °F 30.9 °F 99% 30.34 in 10.0 mi North - - N/A   Clear